• In Latvia
  • List of Countries
  • For 7 days
  • Water Temperature
  • Satellite Maps
  • Weather Map
  • Weather Widgets
  • user-avatar
    Login

    Hourly Weather Solden

    Today, 20 January, Friday

    Time Temperature Precipitation Wind Pressure Humidity
    00:00 -16°C° 0 mm 1 mps 580 mmHg 89%
    01:00 -16°C° 0 mm 1 mps 580 mmHg 88%
    02:00 -16°C° 0 mm 1 mps 580 mmHg 88%
    03:00 -16°C° 0 mm 1 mps 580 mmHg 87%
    04:00 -16°C° 0 mm 1 mps 580 mmHg 87%
    05:00 -16°C° 0 mm 1 mps 580 mmHg 87%
    06:00 -17°C° 0 mm 1 mps 580 mmHg 87%
    07:00 -19°C° 0 mm 2 mps 580 mmHg 87%
    08:00 -14°C° 0 mm 1 mps 581 mmHg 86%
    09:00 -12°C° 0 mm 1 mps 583 mmHg 84%
    10:00 -10°C° 0 mm 1 mps 584 mmHg 83%
    11:00 -9°C° 0 mm 1 mps 584 mmHg 82%
    12:00 -7°C° 0 mm 1 mps 585 mmHg 81%
    13:00 -6°C° 0 mm 1 mps 586 mmHg 80%
    14:00 -7°C° 0 mm 1 mps 585 mmHg 82%
    15:00 -8°C° 0 mm 1 mps 584 mmHg 85%
    16:00 -9°C° 0 mm 1 mps 584 mmHg 87%
    17:00 -11°C° 0 mm 1 mps 582 mmHg 88%
    18:00 -13°C° 0 mm 1 mps 581 mmHg 88%
    19:00 -15°C° 0 mm 1 mps 580 mmHg 89%
    20:00 -16°C° 0 mm 1 mps 580 mmHg 88%
    21:00 -16°C° 0 mm 1 mps 580 mmHg 88%
    22:00 -16°C° 0 mm 1 mps 580 mmHg 88%
    23:00 -16°C° 0 mm 1 mps 580 mmHg 87%

    Tomorrow, 21 January, Saturday

    Time Temperature Precipitation Wind Pressure Humidity
    00:00 -16°C° 0 mm 1 mps 580 mmHg 87%
    01:00 -16°C° 0 mm 1 mps 580 mmHg 87%
    02:00 -16°C° 0 mm 1 mps 580 mmHg 87%
    03:00 -16°C° 0 mm 1 mps 580 mmHg 86%
    04:00 -16°C° 0 mm 1 mps 579 mmHg 86%
    05:00 -16°C° 0 mm 1 mps 579 mmHg 86%
    06:00 -16°C° 0 mm 1 mps 579 mmHg 85%
    07:00 -16°C° 0 mm 1 mps 579 mmHg 84%
    08:00 -14°C° 0 mm 1 mps 580 mmHg 82%
    09:00 -12°C° 0 mm 1 mps 582 mmHg 80%
    10:00 -9°C° 0 mm 1 mps 583 mmHg 78%
    11:00 -8°C° 0 mm 1 mps 584 mmHg 78%
    12:00 -6°C° 0 mm 1 mps 584 mmHg 77%
    13:00 -4°C° 0 mm 1 mps 585 mmHg 76%
    14:00 -6°C° 0 mm 1 mps 584 mmHg 79%
    15:00 -7°C° 0 mm 1 mps 583 mmHg 81%
    16:00 -8°C° 0 mm 1 mps 582 mmHg 84%
    17:00 -11°C° 0 mm 1 mps 581 mmHg 84%
    18:00 -13°C° 0 mm 1 mps 580 mmHg 84%
    19:00 -16°C° 0 mm 1 mps 578 mmHg 84%
    20:00 -16°C° 0 mm 1 mps 578 mmHg 83%
    21:00 -16°C° 0 mm 1 mps 578 mmHg 82%
    22:00 -16°C° 0 mm 1 mps 578 mmHg 81%
    23:00 -16°C° 0 mm 1 mps 578 mmHg 81%

    Day after tomorrow, 22 January, Sunday

    Time Temperature Precipitation Wind Pressure Humidity
    00:00 -16°C° 0 mm 1 mps 579 mmHg 81%
    01:00 -16°C° 0 mm 1 mps 579 mmHg 81%
    02:00 -16°C° 0 mm 1 mps 579 mmHg 82%
    03:00 -16°C° 0 mm 1 mps 578 mmHg 82%
    04:00 -16°C° 0 mm 1 mps 578 mmHg 82%
    05:00 -16°C° 0 mm 1 mps 578 mmHg 81%
    06:00 -16°C° 0 mm 1 mps 578 mmHg 80%
    07:00 -18°C° 0 mm 2 mps 578 mmHg 79%
    08:00 -16°C° 0 mm 2 mps 579 mmHg 78%
    09:00 -14°C° 0 mm 2 mps 581 mmHg 77%
    10:00 -9°C° 0 mm 1 mps 582 mmHg 76%
    11:00 -8°C° 0 mm 1 mps 583 mmHg 76%
    12:00 -6°C° 0 mm 1 mps 583 mmHg 76%
    13:00 -4°C° 0 mm 1 mps 583 mmHg 76%
    14:00 -6°C° 0 mm 1 mps 583 mmHg 78%
    15:00 -6°C° 0 mm 1 mps 582 mmHg 81%
    16:00 -7°C° 0 mm 1 mps 581 mmHg 84%
    17:00 -9°C° 0 mm 1 mps 581 mmHg 84%
    18:00 -11°C° 0 mm 1 mps 580 mmHg 85%
    19:00 -12°C° 0 mm 1 mps 579 mmHg 85%
    20:00 -12°C° 0 mm 1 mps 579 mmHg 85%
    21:00 -13°C° 0 mm 1 mps 579 mmHg 86%
    22:00 -13°C° 0 mm 1 mps 579 mmHg 86%
    23:00 -13°C° 0 mm 1 mps 579 mmHg 87%

    23 January, Monday

    Time Temperature Precipitation Wind Pressure Humidity
    00:00 -13°C° 0 mm 1 mps 578 mmHg 87%
    01:00 -13°C° 0 mm 1 mps 578 mmHg 88%
    02:00 -13°C° 0 mm 1 mps 578 mmHg 88%
    03:00 -13°C° 0 mm 1 mps 577 mmHg 88%
    04:00 -13°C° 0 mm 1 mps 577 mmHg 88%
    05:00 -13°C° 0 mm 1 mps 577 mmHg 88%
    06:00 -13°C° 0 mm 1 mps 577 mmHg 89%
    07:00 -13°C° 0 mm 1 mps 577 mmHg 89%
    08:00 -11°C° 0 mm 1 mps 578 mmHg 87%
    09:00 -9°C° 0 mm 1 mps 579 mmHg 86%
    10:00 -7°C° 0 mm 1 mps 580 mmHg 84%
    11:00 -4°C° 0 mm 1 mps 581 mmHg 84%
    12:00 -3°C° 0 mm 1 mps 581 mmHg 83%
    13:00 -2°C° 0 mm 1 mps 581 mmHg 82%
    14:00 -4°C° 0 mm 0 mps 580 mmHg 84%
    15:00 -5°C° 0 mm 0 mps 580 mmHg 87%
    16:00 -6°C° 0 mm 0 mps 579 mmHg 89%
    17:00 -8°C° 0 mm 0 mps 577 mmHg 90%
    18:00 -11°C° 0 mm 1 mps 576 mmHg 91%
    19:00 -14°C° 0 mm 1 mps 574 mmHg 92%
    20:00 -14°C° 0 mm 1 mps 574 mmHg 91%
    21:00 -14°C° 0 mm 1 mps 574 mmHg 90%
    22:00 -15°C° 0 mm 1 mps 574 mmHg 90%
    23:00 -15°C° 0 mm 1 mps 573 mmHg 89%

    24 January, Tuesday

    Time Temperature Precipitation Wind Pressure Humidity
    00:00 -15°C° 0 mm 1 mps 573 mmHg 88%
    01:00 -15°C° 0 mm 1 mps 573 mmHg 88%
    02:00 -15°C° 0 mm 1 mps 573 mmHg 87%
    03:00 -15°C° 0 mm 1 mps 573 mmHg 86%
    04:00 -15°C° 0 mm 1 mps 573 mmHg 86%
    05:00 -15°C° 0 mm 1 mps 573 mmHg 86%
    06:00 -16°C° 0 mm 1 mps 573 mmHg 85%
    07:00 -16°C° 0 mm 1 mps 573 mmHg 85%
    08:00 -12°C° 0 mm 1 mps 575 mmHg 83%
    09:00 -9°C° 0 mm 1 mps 577 mmHg 81%
    10:00 -6°C° 0 mm 1 mps 580 mmHg 79%
    11:00 -3°C° 0 mm 1 mps 580 mmHg 79%
    12:00 -3°C° 0 mm 0 mps 580 mmHg 79%
    13:00 -2°C° 0 mm 0 mps 581 mmHg 79%
    14:00 -3°C° 0 mm 0 mps 580 mmHg 82%
    15:00 -5°C° 0 mm 0 mps 580 mmHg 84%
    16:00 -6°C° 0 mm 0 mps 579 mmHg 86%
    17:00 -9°C° 0 mm 0 mps 578 mmHg 88%
    18:00 -12°C° 0 mm 1 mps 576 mmHg 90%
    19:00 -15°C° 0 mm 1 mps 575 mmHg 91%
    20:00 -15°C° 0 mm 1 mps 575 mmHg 89%
    21:00 -16°C° 0 mm 1 mps 575 mmHg 88%
    22:00 -16°C° 0 mm 1 mps 575 mmHg 86%
    23:00 -16°C° 0 mm 1 mps 575 mmHg 84%

    25 January, Wednesday

    Time Temperature Precipitation Wind Pressure Humidity
    00:00 -16°C° 0 mm 1 mps 575 mmHg 81%
    01:00 -16°C° 0 mm 1 mps 575 mmHg 79%
    02:00 -17°C° 0 mm 1 mps 575 mmHg 78%
    03:00 -17°C° 0 mm 1 mps 575 mmHg 77%
    04:00 -17°C° 0 mm 1 mps 575 mmHg 76%
    05:00 -17°C° 0 mm 1 mps 575 mmHg 75%
    06:00 -17°C° 0 mm 1 mps 575 mmHg 74%
    07:00 -17°C° 0 mm 1 mps 575 mmHg 73%
    08:00 -14°C° 0 mm 1 mps 577 mmHg 73%
    09:00 -11°C° 0 mm 1 mps 579 mmHg 74%
    10:00 -7°C° 0 mm 1 mps 582 mmHg 74%
    11:00 -6°C° 0 mm 1 mps 582 mmHg 75%
    12:00 -5°C° 0 mm 0 mps 583 mmHg 75%
    13:00 -3°C° 0 mm 0 mps 583 mmHg 76%
    14:00 -4°C° 0 mm 0 mps 583 mmHg 79%
    15:00 -6°C° 0 mm 0 mps 582 mmHg 81%
    16:00 -7°C° 0 mm 0 mps 581 mmHg 84%
    17:00 -10°C° 0 mm 0 mps 579 mmHg 86%
    18:00 -13°C° 0 mm 0 mps 578 mmHg 88%
    19:00 -16°C° 0 mm 0 mps 576 mmHg 90%
    20:00 -16°C° 0 mm 0 mps 576 mmHg 89%
    21:00 -16°C° 0 mm 0 mps 576 mmHg 87%
    22:00 -16°C° 0 mm 0 mps 576 mmHg 85%
    23:00 -16°C° 0 mm 0 mps 576 mmHg 83%
    Show more